View from above orbital plane
|
View from above satellite
|
Ground track
|
The orbit data is extracted from the following two-line orbital elements,
1 39417U 13066B 22136.43740723 .00002052 00000-0 25619-3 0 9999
2 39417 97.6346 109.3888 0058728 148.1498 212.3289 14.82204245458380
Epoch (UTC): | 16 May 2022 10:29:51 |
Eccentricity: | 0.0058728 |
inclination: | 97.6346° |
perigee height: | 581 km |
apogee height: | 663 km |
right ascension of ascending node: | 109.3888° |
argument of perigee: | 148.1498° |
revolutions per day: | 14.82204245 |
mean anomaly at epoch: | 212.3289° |
orbit number at epoch: | 45838 |
The dashed part of the orbit path shows where the satellite is in the earth's shadow,
|
|